Погода в Высоком

Россия / Калужская область     53°55′01″N   34°56′45″E
темп.,
°C
ветер,
м/с
пор.,
м/с
влажн.,
%
обл.,
%
осадки,
мм/ч
давл.,
гПа
погр.,
м
22 мая, вс
вс2200:00+7в41196100 0.4 1002566
03:00+8в51296100 1.1 1001630
06:00+7всв51295100 0.9 1000738
09:00+8всв51086100 1.2 1001652
12:00+12всв795694 0.1 10011966
15:00+11св685966 0.3 10031262
18:00+12св375189 0.0 10031864
21:00+6с377216 0.1 1006122
23 мая, пн
пн2300:00+3ссв397868 0.0 1007174
03:00+1с34750 0.0 100869
06:00+3ссз26733 0.0 1009155
09:00+9ссз47490 0.0 10081415
12:00+12ссз56405 0.0 10071989
15:00+13сз56365 0.0 10072131
18:00+12сз47465 0.0 10071749
21:00+6з346749 0.0 100864
24 мая, вт
вт2400:00+5сз3108849 0.0 1008198
03:00+4сз399511 0.0 1009186
06:00+4сз31086100 0.0 1010295
09:00+11зсз595497 0.0 10101048
12:00+14сз61261100 0.3 10091739
15:00+14сз61165100 1.3 10091609
18:00+11ссв2583100 1.5 1010393
21:00+9всв1190100 1.7 101111
25 мая, ср
ср2500:00+5всв3793100 0.1 1013243
03:00+6в1296100 0.8 1013103
06:00+6с3695100 0.3 1014432
09:00+7ссв2382100 0.3 1015716
12:00+9ссз3467100 0.0 10151115
15:00+10св236392 0.1 1015833
18:00+12св1256100 0.0 1015918
21:00+7ююв3480100 0.0 101666
26 мая, чт
чт2600:00+5ююв36865 0.0 1016106
03:00+3ююв38955 0.0 1015160
06:00+5ююв3108582 0.0 1013267
09:00+12ююв61067100 0.0 1010502
12:00+17ююв71069100 0.0 10061143
15:00+13ю71394100 2.6 10031001
18:00+11ююз51398100 3.0 1002773
21:00+11зюз5129573 3.2 1003696